Tracking 27122 objects as of 24-Mar-2023
HD Live streaming from Space Station
objects crossing your sky now

ONEWEB-0188

Track ONEWEB-0188 now!
10-day predictions
ONEWEB-0188 is classified as:


NORAD ID: 48231
Int'l Code: 2021-031X
Perigee: 1,211.3 km
Apogee: 1,214.6 km
Inclination: 87.9 °
Period: 109.5 minutes
Semi major axis: 7583 km
RCS: Unknown
Launch date: April 25, 2021
Source: United Kingdom (UK)
Launch site: VOSTOCHNY COSMODROME (VOSTO)
Your satellite tracking list
Your tracking list is empty




NASA's NSSDC Master Catalog

Two Line Element Set (TLE):
1 48231U 21031X   23082.78576990 -.00000143  00000-0 -41999-3 0  9996
2 48231  87.9121 164.7851 0002125 102.8769 257.2598 13.14500297 92936
Source of the keplerian elements: AFSPC